Weather History for KOTH - March, 2012

Change the Weather History Date:

Monday, March 12, 2012

  Actual Average Record
Temperature  
Mean Temperature 42 °F 48 °F  
Max Temperature 52 °F 54 °F 74 °F (1905)
Min Temperature 32 °F 41 °F 29 °F (1976)
Degree Days  
Heating Degree Days 23 17  
Month to date heating degree days 246 213  
Since 1 July heating degree days 3396 3387  
Cooling Degree Days 0 0  
Month to date cooling degree days 0 0  
Year to date cooling degree days 0 0  
Moisture  
Dew Point 34 °F    
Average Humidity 61    
Maximum Humidity 76    
Minimum Humidity 54    
Precipitation  
Precipitation 1.21 in 0.26 in 2.10 in (1987)
Month to date precipitation 2.48 3.21  
Year to date precipitation 10.37 20.99  
Sea Level Pressure  
Sea Level Pressure 29.64 in    
Wind  
Wind Speed 21 mph (SSE)    
Max Wind Speed 36 mph    
Max Gust Speed 53 mph    
Visibility 10 miles    
Events      
T = Trace of Precipitation, MM = Missing Value Source: NWS Daily Summary

Daily Weather History Graph

Daily Weather History Graph

Search for Another Location

Airport or City:

Trip Planner

Search our weather history database for the weather conditions in past years. The results will help you decide how hot, cold, wet, or windy it might be!

Date:

Astronomy

Mar. 12, 2012 Rise Set
Actual Time 7:33 AM PDT 7:20 PM PDT
Civil Twilight 7:04 AM PDT 7:48 PM PDT
Nautical Twilight 6:31 AM PDT 8:22 PM PDT
Astronomical Twilight 5:58 AM PDT 8:55 PM PDT
Moon 12:00 AM PDT (3/12) 9:48 AM PDT (3/12)
Length of Visible Light 12h 43m
Length of Day
11h 47m
Waning Gibbous, 75% of the Moon is Illuminated
Mar 12
Waning Gibbous
Mar 14
Last Quarter
Mar 22
New
Mar 30
First Quarter
Apr 6
Full

Hourly Weather History & Observations

Time (PDT) Temp. Windchill Dew Point Humidity Pressure Visibility Wind Dir Wind Speed Gust Speed Precip Events Conditions
12:15 AM 42.8 °F 36.6 °F 28.4 °F 57% 29.83 in 10.0 mi SSE 11.5 mph - N/A   Mostly Cloudy
12:35 AM 42.8 °F 35.8 °F 28.4 °F 57% 29.83 in 10.0 mi SSE 13.8 mph - N/A   Mostly Cloudy
12:55 AM 42.8 °F 36.2 °F 28.4 °F 57% 29.82 in 10.0 mi South 12.7 mph 18.4 mph N/A   Mostly Cloudy
1:15 AM 44.6 °F 38.8 °F 28.4 °F 53% 29.81 in 10.0 mi SSE 11.5 mph 19.6 mph N/A   Overcast
1:35 AM 44.6 °F 37.4 °F 28.4 °F 53% 29.80 in 10.0 mi SSE 16.1 mph - N/A   Overcast
1:55 AM 44.6 °F 37.2 °F 30.2 °F 57% 29.80 in 10.0 mi SSE 17.3 mph 27.6 mph N/A   Overcast
2:15 AM 42.8 °F 34.8 °F 30.2 °F 61% 29.80 in 10.0 mi SSE 17.3 mph - N/A   Overcast
2:35 AM 42.8 °F 35.1 °F 32.0 °F 66% 29.79 in 10.0 mi SSE 16.1 mph 24.2 mph N/A   Overcast
2:55 AM 42.8 °F 34.0 °F 30.2 °F 61% 29.78 in 10.0 mi South 20.7 mph 28.8 mph N/A   Overcast
3:15 AM 42.8 °F 35.1 °F 32.0 °F 66% 29.79 in 10.0 mi South 16.1 mph 25.3 mph 0.02 in   Overcast
3:35 AM 41.0 °F 33.9 °F 32.0 °F 70% 29.77 in 9.0 mi SE 12.7 mph 21.9 mph 0.06 in   Overcast
3:55 AM 41.0 °F 32.8 °F 32.0 °F 70% 29.76 in 10.0 mi SSE 16.1 mph 28.8 mph 0.06 in   Overcast
4:15 AM 42.8 °F 34.3 °F 30.2 °F 61% 29.74 in 10.0 mi SSE 19.6 mph 25.3 mph N/A   Overcast
4:35 AM 42.8 °F 34.3 °F 30.2 °F 61% 29.72 in 10.0 mi SSE 19.6 mph 26.5 mph N/A   Overcast
4:55 AM 42.8 °F 35.4 °F 30.2 °F 61% 29.71 in 10.0 mi SSE 15.0 mph 21.9 mph N/A   Overcast
5:15 AM 42.8 °F 36.2 °F 30.2 °F 61% 29.69 in 10.0 mi SSE 12.7 mph 24.2 mph N/A   Overcast
5:35 AM 42.8 °F 35.4 °F 32.0 °F 66% 29.68 in 10.0 mi SSE 15.0 mph 19.6 mph N/A   Overcast
5:55 AM 42.8 °F 35.1 °F 32.0 °F 66% 29.67 in 10.0 mi SSE 16.1 mph 19.6 mph N/A   Overcast
6:15 AM 42.8 °F 34.3 °F 32.0 °F 66% 29.66 in 10.0 mi SSE 19.6 mph 26.5 mph 0.01 in   Overcast
6:35 AM 42.8 °F 34.5 °F 32.0 °F 66% 29.65 in 10.0 mi SSE 18.4 mph 26.5 mph 0.01 in   Overcast
6:55 AM 44.6 °F 35.5 °F 33.8 °F 66% 29.63 in 10.0 mi SSE 25.3 mph 34.5 mph 0.01 in   Overcast
7:15 AM 44.6 °F 36.4 °F 32.0 °F 61% 29.64 in 10.0 mi SSE 20.7 mph 29.9 mph N/A   Overcast
7:35 AM 44.6 °F 36.6 °F 32.0 °F 61% 29.62 in 10.0 mi SSE 19.6 mph 28.8 mph N/A   Overcast
7:55 AM 44.6 °F 35.9 °F 32.0 °F 61% 29.62 in 10.0 mi SSE 23.0 mph 33.4 mph N/A   Overcast
8:15 AM 44.6 °F 36.6 °F 33.8 °F 66% 29.62 in 10.0 mi SSE 19.6 mph 31.1 mph N/A   Overcast
8:35 AM 46.4 °F 39.0 °F 33.8 °F 62% 29.61 in 10.0 mi South 19.6 mph 26.5 mph N/A   Overcast
8:55 AM 46.4 °F 39.0 °F 33.8 °F 62% 29.61 in 10.0 mi South 19.6 mph 28.8 mph N/A   Overcast
9:15 AM 46.4 °F 39.0 °F 33.8 °F 62% 29.61 in 10.0 mi SSE 19.6 mph 25.3 mph N/A   Overcast
9:35 AM 48.2 °F - 33.8 °F 58% 29.60 in 10.0 mi South 23.0 mph 31.1 mph N/A   Overcast
9:55 AM 48.2 °F - 35.6 °F 62% 29.60 in 10.0 mi South 26.5 mph 38.0 mph N/A   Overcast
10:15 AM 48.2 °F - 35.6 °F 62% 29.60 in 10.0 mi South 21.9 mph 34.5 mph N/A   Overcast
10:35 AM 50.0 °F - 35.6 °F 58% 29.59 in 10.0 mi South 23.0 mph 33.4 mph N/A   Overcast
10:55 AM 51.8 °F - 35.6 °F 54% 29.57 in 10.0 mi South 35.7 mph 46.0 mph N/A   Overcast
11:15 AM 51.8 °F - 35.6 °F 54% 29.57 in 10.0 mi South 27.6 mph 38.0 mph N/A   Overcast
11:35 AM 51.8 °F - 35.6 °F 54% 29.56 in 10.0 mi South 25.3 mph 40.3 mph N/A   Overcast
11:55 AM 51.8 °F - 35.6 °F 54% 29.56 in 10.0 mi South 34.5 mph 52.9 mph N/A   Overcast
12:15 PM 51.8 °F - 35.6 °F 54% 29.56 in 10.0 mi South 28.8 mph 46.0 mph N/A   Overcast
12:35 PM 51.8 °F - 35.6 °F 54% 29.56 in 10.0 mi South 25.3 mph 44.9 mph N/A   Overcast
12:55 PM 51.8 °F - 35.6 °F 54% 29.55 in 10.0 mi South 29.9 mph 48.3 mph N/A   Overcast
1:15 PM 51.8 °F - 35.6 °F 54% 29.55 in 10.0 mi South 23.0 mph 51.8 mph N/A   Overcast
1:35 PM 51.8 °F - 37.4 °F 58% 29.54 in 10.0 mi South 28.8 mph 39.1 mph N/A   Overcast
1:55 PM 51.8 °F - 35.6 °F 54% 29.54 in 10.0 mi South 25.3 mph 44.9 mph N/A   Overcast
2:15 PM 51.8 °F - 37.4 °F 58% 29.53 in 10.0 mi South 28.8 mph 44.9 mph N/A   Overcast
2:35 PM 51.8 °F - 37.4 °F 58% 29.51 in 10.0 mi South 34.5 mph 44.9 mph N/A   Overcast
2:55 PM 50.0 °F - 37.4 °F 62% 29.51 in 10.0 mi South 24.2 mph 34.5 mph N/A   Overcast
3:15 PM 48.2 °F - 37.4 °F 66% 29.51 in 10.0 mi South 26.5 mph 38.0 mph N/A   Overcast
3:35 PM 48.2 °F - 37.4 °F 66% 29.51 in 10.0 mi South 26.5 mph 33.4 mph 0.01 in   Overcast
3:55 PM 48.2 °F - 37.4 °F 66% 29.50 in 10.0 mi South 23.0 mph 31.1 mph 0.02 in   Overcast
4:15 PM 48.2 °F - 37.4 °F 66% 29.50 in 10.0 mi South 19.6 mph 38.0 mph 0.01 in   Overcast
4:35 PM 46.4 °F 38.5 °F 37.4 °F 71% 29.49 in 10.0 mi South 21.9 mph 33.4 mph 0.03 in   Overcast
4:55 PM 46.4 °F 39.0 °F 37.4 °F 71% 29.49 in 10.0 mi South 19.6 mph 35.7 mph 0.05 in   Overcast
5:15 PM 46.4 °F 38.7 °F 37.4 °F 71% 29.48 in 10.0 mi South 20.7 mph 31.1 mph N/A   Overcast
5:35 PM 46.4 °F 38.3 °F 37.4 °F 71% 29.47 in 10.0 mi SSE 23.0 mph 32.2 mph 0.04 in   Overcast
5:55 PM 46.4 °F 38.1 °F 37.4 °F 71% 29.45 in 10.0 mi South 24.2 mph 32.2 mph 0.06 in   Overcast
6:15 PM 46.4 °F 38.7 °F 37.4 °F 71% 29.45 in 10.0 mi South 20.7 mph 31.1 mph 0.02 in   Overcast
6:35 PM 46.4 °F 39.0 °F 37.4 °F 71% 29.44 in 3.0 mi South 19.6 mph 31.1 mph 0.06 in   Overcast
6:55 PM 46.4 °F 37.5 °F 37.4 °F 71% 29.43 in 3.0 mi SSE 27.6 mph 48.3 mph 0.10 in   Overcast
7:15 PM 46.4 °F 38.1 °F 37.4 °F 71% 29.43 in 9.0 mi SSE 24.2 mph 31.1 mph 0.05 in   Overcast
7:35 PM 46.4 °F 39.2 °F 37.4 °F 71% 29.42 in 3.0 mi South 18.4 mph 27.6 mph N/A   Overcast
7:55 PM 46.4 °F 38.5 °F 37.4 °F 71% 29.41 in 3.0 mi SSE 21.9 mph 26.5 mph 0.13 in   Overcast
8:15 PM 46.4 °F 38.5 °F 37.4 °F 71% 29.40 in 10.0 mi SSE 21.9 mph 27.6 mph 0.03 in   Overcast
8:35 PM 46.4 °F 38.5 °F 37.4 °F 71% 29.40 in 10.0 mi SSE 21.9 mph 27.6 mph 0.08 in   Mostly Cloudy
8:55 PM 46.4 °F 40.1 °F 37.4 °F 71% 29.41 in 10.0 mi South 15.0 mph 28.8 mph 0.11 in   Overcast
9:15 PM 42.8 °F 33.8 °F 32.0 °F 66% 29.46 in 5.0 mi WNW 21.9 mph 32.2 mph 0.16 in   Mostly Cloudy
9:35 PM 39.2 °F 29.8 °F 32.0 °F 75% 29.49 in 7.0 mi NNW 18.4 mph 25.3 mph 0.21 in   Overcast
9:55 PM 37.4 °F 28.5 °F 30.2 °F 75% 29.52 in 9.0 mi NW 15.0 mph 19.6 mph 0.25 in   Overcast
10:15 PM 35.6 °F 30.7 °F 28.4 °F 75% 29.54 in 7.0 mi NNW 5.8 mph - 0.06 in   Overcast
10:35 PM 35.6 °F 28.6 °F 26.6 °F 70% 29.56 in 5.0 mi NW 9.2 mph - 0.13 in   Overcast
10:55 PM 33.8 °F 29.6 °F 24.8 °F 70% 29.55 in 2.5 mi NW 4.6 mph - 0.18 in   Overcast
11:15 PM 32.0 °F - 24.8 °F 75% 29.56 in 1.5 mi Calm Calm - 0.02 in   Overcast
11:35 PM 32.0 °F - 24.8 °F 75% 29.56 in 0.8 mi Calm Calm - 0.03 in   Overcast
11:55 PM 32.0 °F - 24.8 °F 75% 29.59 in 0.8 mi Calm Calm - 0.03 in   Overcast